CZ-6A DEB, 55191

Orbit data source: Space-Track

CZ-6A DEB, 55191 is space debris in SSO originally from a launch on Fri, 11 Nov 2022 UTC launched from the Taiyaun Space Center, China (TSC). Debris objects in space refer to the collection of defunct objects orbiting the Earth. Examples of debris include non-operational satellites, rocket bodies, and fragments generated from explosions, collisions, or faulty payload assembly.

Loading next visibility...
Identifier
55191, 2022-151VG
Orbit
SSO
Country
Flag of CNCN / PRC
Related business
Manufacturer
SAST
Mission
Spacecraft
Bus & Motor
Unknown
Mass
Unknown
Launch date (UTC)
2022-11-11 (4 years ago)
Launch vehicle
Unknown
Launch site
Taiyaun Space Center, China (TSC)
Object type
Payload
Rocket body
Debris
Shape & HBR
Unknown shape, 0.1 m
Radar Cross Section
Medium (>0.1 m² and <1 m²)

Expand to show TLE details & history
Last TLE update: 3 days ago

TLE from 3 days ago
0 CZ-6A DEB
1 55191U 22151VG  26170.55252139  .00000607  00000-0  27853-3 0  9991
2 55191  98.7159 183.7235 0047543 334.9140  24.9729 14.24355068181773
Epoch: 2026-06-19T13:15Z
TLE epoch observation values (Epoch: 2026-06-19T13:15:37.848Z)
Latitude
-0.00003°
Longitude
77.03595°
Altitude
782.623 km
Speed
7.479 km/s
True Right ascension
12h 14m 53s
True Declination
0° 00' 00"
Sunlit
Object was in daylight at epoch
Visualization orbit readout
Latitude
Unknown
Longitude
Unknown
Altitude
Unknown
Speed
Unknown
Apparent Right ascension
Unknown
Apparent Declination
Unknown
Sunlit
N/A
Visualization observer readout
Local Sidereal Time
21:26:32
Azimuth
Unknown
Elevation
Unknown
Doppler factor
Unknown
Orbital elements
Apogee altitude
841.979 km
Perigee altitude
773.651 km
Semi-major axis
7,185.952 km
Eccentricity
0.00475
Inclination
98.7159°
RAAN
183.7235°
Arg. of periapsis
334.914°
True anomaly
25.20415°
Mean anomaly
24.9729°
Eccentric anomaly
25.0884°
Mean motion
3.56301 °/min
Orbital period
101.04 mins
BSTAR
0.00027853
Loading maneuver chart data...
Computing Atmospheric mass density...
Loading historical data...
Loading historical data...
Loading historical data...
Loading historical data...
Loading historical data...
Loading historical data...
Loading historical data...

Documentation

Showing up to 5 results
|